Wetterdaten: aktuell Mittwoch, 20.09.2017 07:20
Datum Zeit Temp. A. Temp. A. min Feuchte A. Luftdruck Regen Wind Richtung Richtung Sonnenschein Solar Taupunkt Windchill Windben
20.09.2017 07:20 11,2 C 11,2 C 92 % 1021,0 hPa 0,0 l/m 0,6 km/h (0 Bft) W 263 0 min 0 W/m 9,9 C 11,2 C 3,2 km/h (1 Bft)
20.09.2017 07:15 11,2 C 11,2 C 92 % 1021,0 hPa 0,0 l/m 1,4 km/h (1 Bft) W 263 0 min 0 W/m 9,9 C 11,2 C 6,4 km/h (2 Bft)
20.09.2017 07:10 11,2 C 11,2 C 92 % 1020,9 hPa 0,0 l/m 1,4 km/h (1 Bft) W-NW 296 0 min 0 W/m 9,9 C 11,2 C 6,4 km/h (2 Bft)
20.09.2017 07:05 11,2 C 11,2 C 92 % 1020,9 hPa 0,0 l/m 1,4 km/h (1 Bft) W 275 0 min 0 W/m 9,9 C 11,2 C 4,8 km/h (1 Bft)
20.09.2017 07:00 11,2 C 11,2 C 92 % 1020,9 hPa 0,0 l/m 1,0 km/h (0 Bft) W 270 0 min 0 W/m 9,9 C 11,2 C 4,8 km/h (1 Bft)
20.09.2017 06:55 11,2 C 11,2 C 92 % 1020,9 hPa 0,0 l/m 2,7 km/h (1 Bft) W 266 0 min 0 W/m 9,9 C 11,2 C 6,4 km/h (2 Bft)
20.09.2017 06:50 11,3 C 11,2 C 92 % 1020,8 hPa 0,0 l/m 1,1 km/h (1 Bft) SW 227 0 min 0 W/m 10,0 C 11,3 C 6,4 km/h (2 Bft)
20.09.2017 06:45 11,2 C 11,2 C 92 % 1020,9 hPa 0,0 l/m 1,4 km/h (1 Bft) NW 307 0 min 0 W/m 9,9 C 11,2 C 6,4 km/h (2 Bft)
20.09.2017 06:40 11,2 C 11,2 C 92 % 1020,8 hPa 0,0 l/m 1,1 km/h (1 Bft) SW 225 0 min 0 W/m 9,9 C 11,2 C 4,8 km/h (1 Bft)
20.09.2017 06:35 11,2 C 11,2 C 92 % 1020,8 hPa 0,0 l/m 1,2 km/h (1 Bft) W-SW 246 0 min 0 W/m 9,9 C 11,2 C 8,0 km/h (2 Bft)
20.09.2017 06:30 11,2 C 11,2 C 92 % 1020,7 hPa 0,0 l/m 1,3 km/h (1 Bft) W-SW 251 0 min 0 W/m 9,9 C 11,2 C 6,4 km/h (2 Bft)
20.09.2017 06:25 11,2 C 11,2 C 92 % 1020,7 hPa 0,0 l/m 1,9 km/h (1 Bft) W-SW 254 0 min 0 W/m 9,9 C 11,2 C 4,8 km/h (1 Bft)
20.09.2017 06:20 11,2 C 11,2 C 92 % 1020,7 hPa 0,0 l/m 1,3 km/h (1 Bft) W 268 0 min 0 W/m 9,9 C 11,2 C 4,8 km/h (1 Bft)
20.09.2017 06:15 11,2 C 11,2 C 92 % 1020,6 hPa 0,0 l/m 2,8 km/h (1 Bft) W 267 0 min 0 W/m 9,9 C 11,2 C 11,3 km/h (2 Bft)
20.09.2017 06:10 11,2 C 11,2 C 92 % 1020,7 hPa 0,0 l/m 1,3 km/h (1 Bft) W-NW 303 0 min 0 W/m 9,9 C 11,2 C 6,4 km/h (2 Bft)
20.09.2017 06:05 11,2 C 11,1 C 92 % 1020,7 hPa 0,0 l/m 2,5 km/h (1 Bft) W 274 0 min 0 W/m 9,9 C 11,2 C 9,7 km/h (2 Bft)
20.09.2017 06:00 11,1 C 11,1 C 92 % 1020,7 hPa 0,0 l/m 1,6 km/h (1 Bft) NW 306 0 min 0 W/m 9,8 C 11,1 C 9,7 km/h (2 Bft)
20.09.2017 05:55 11,1 C 11,1 C 92 % 1020,6 hPa 0,0 l/m 3,8 km/h (1 Bft) W-NW 285 0 min 0 W/m 9,8 C 11,1 C 9,7 km/h (2 Bft)
20.09.2017 05:50 11,1 C 11,0 C 93 % 1020,7 hPa 0,0 l/m 2,8 km/h (1 Bft) W-SW 258 0 min 0 W/m 10,0 C 11,1 C 11,3 km/h (2 Bft)
20.09.2017 05:45 11,0 C 10,9 C 92 % 1020,6 hPa 0,0 l/m 1,2 km/h (1 Bft) S 188 0 min 0 W/m 9,8 C 11,0 C 4,8 km/h (1 Bft)
20.09.2017 05:40 10,9 C 10,9 C 92 % 1020,6 hPa 0,0 l/m 0,4 km/h (0 Bft) S-SW 196 0 min 0 W/m 9,7 C 10,9 C 3,2 km/h (1 Bft)
20.09.2017 05:35 10,9 C 10,9 C 92 % 1020,5 hPa 0,0 l/m 0,0 km/h (0 Bft) SW 219 0 min 0 W/m 9,7 C 10,9 C 1,6 km/h (1 Bft)
20.09.2017 05:30 10,9 C 10,9 C 92 % 1020,5 hPa 0,0 l/m 0,5 km/h (0 Bft) SW 219 0 min 0 W/m 9,7 C 10,9 C 3,2 km/h (1 Bft)
20.09.2017 05:25 10,9 C 10,9 C 93 % 1020,4 hPa 0,0 l/m 0,1 km/h (0 Bft) SW 219 0 min 0 W/m 9,8 C 10,9 C 1,6 km/h (1 Bft)
20.09.2017 05:20 10,9 C 10,9 C 93 % 1020,4 hPa 0,0 l/m 0,5 km/h (0 Bft) SW 219 0 min 0 W/m 9,8 C 10,9 C 3,2 km/h (1 Bft)
20.09.2017 05:15 10,9 C 10,9 C 93 % 1020,3 hPa 0,0 l/m 0,2 km/h (0 Bft) SW 219 0 min 0 W/m 9,8 C 10,9 C 1,6 km/h (1 Bft)
20.09.2017 05:10 10,9 C 10,8 C 93 % 1020,4 hPa 0,0 l/m 0,1 km/h (0 Bft) SW 219 0 min 0 W/m 9,8 C 10,9 C 1,6 km/h (1 Bft)
20.09.2017 05:05 10,8 C 10,8 C 93 % 1020,4 hPa 0,0 l/m 0,7 km/h (0 Bft) SW 219 0 min 0 W/m 9,7 C 10,8 C 3,2 km/h (1 Bft)
20.09.2017 05:00 10,8 C 10,8 C 93 % 1020,3 hPa 0,0 l/m 0,2 km/h (0 Bft) SW 219 0 min 0 W/m 9,7 C 10,8 C 1,6 km/h (1 Bft)
20.09.2017 04:55 10,8 C 10,8 C 93 % 1020,3 hPa 0,0 l/m 0,5 km/h (0 Bft) SW 219 0 min 0 W/m 9,7 C 10,8 C 3,2 km/h (1 Bft)
20.09.2017 04:50 10,8 C 10,8 C 93 % 1020,3 hPa 0,0 l/m 0,6 km/h (0 Bft) SW 219 0 min 0 W/m 9,7 C 10,8 C 4,8 km/h (1 Bft)
20.09.2017 04:45 10,8 C 10,8 C 93 % 1020,3 hPa 0,0 l/m 0,0 km/h (0 Bft) SW 219 0 min 0 W/m 9,7 C 10,8 C 1,6 km/h (1 Bft)
20.09.2017 04:40 10,8 C 10,8 C 93 % 1020,2 hPa 0,0 l/m 0,5 km/h (0 Bft) SW 219 0 min 0 W/m 9,7 C 10,8 C 3,2 km/h (1 Bft)
20.09.2017 04:35 10,8 C 10,7 C 93 % 1020,1 hPa 0,0 l/m 0,0 km/h (0 Bft) SW 219 0 min 0 W/m 9,7 C 10,8 C 1,6 km/h (1 Bft)
20.09.2017 04:30 10,8 C 10,7 C 93 % 1020,2 hPa 0,0 l/m 0,0 km/h (0 Bft) SW 219 0 min 0 W/m 9,7 C 10,8 C 0,0 km/h (0 Bft)
20.09.2017 04:25 10,7 C 10,7 C 93 % 1020,1 hPa 0,0 l/m 1,6 km/h (1 Bft) SW 219 0 min 0 W/m 9,6 C 10,7 C 4,8 km/h (1 Bft)
20.09.2017 04:20 10,7 C 10,7 C 93 % 1020,2 hPa 0,0 l/m 0,1 km/h (0 Bft) SW 219 0 min 0 W/m 9,6 C 10,7 C 1,6 km/h (1 Bft)
20.09.2017 04:15 10,7 C 10,7 C 93 % 1020,2 hPa 0,0 l/m 0,1 km/h (0 Bft) SW 219 0 min 0 W/m 9,6 C 10,7 C 1,6 km/h (1 Bft)
20.09.2017 04:10 10,7 C 10,7 C 93 % 1020,3 hPa 0,0 l/m 0,0 km/h (0 Bft) SW 219 0 min 0 W/m 9,6 C 10,7 C 0,0 km/h (0 Bft)
20.09.2017 04:05 10,7 C 10,7 C 93 % 1020,2 hPa 0,0 l/m 0,0 km/h (0 Bft) SW 219 0 min 0 W/m 9,6 C 10,7 C 0,0 km/h (0 Bft)
20.09.2017 04:00 10,7 C 10,7 C 93 % 1020,2 hPa 0,0 l/m 0,0 km/h (0 Bft) SW 219 0 min 0 W/m 9,6 C 10,7 C 0,0 km/h (0 Bft)
20.09.2017 03:55 10,7 C 10,7 C 93 % 1020,1 hPa 0,0 l/m 0,0 km/h (0 Bft) SW 219 0 min 0 W/m 9,6 C 10,7 C 1,6 km/h (1 Bft)
20.09.2017 03:50 10,7 C 10,7 C 93 % 1020,1 hPa 0,0 l/m 0,0 km/h (0 Bft) SW 219 0 min 0 W/m 9,6 C 10,7 C 0,0 km/h (0 Bft)
20.09.2017 03:45 10,7 C 10,7 C 93 % 1020,1 hPa 0,0 l/m 0,0 km/h (0 Bft) SW 219 0 min 0 W/m 9,6 C 10,7 C 0,0 km/h (0 Bft)
20.09.2017 03:40 10,7 C 10,6 C 93 % 1020,1 hPa 0,0 l/m 0,7 km/h (0 Bft) SW 219 0 min 0 W/m 9,6 C 10,7 C 3,2 km/h (1 Bft)
20.09.2017 03:35 10,7 C 10,6 C 93 % 1020,1 hPa 0,0 l/m 0,2 km/h (0 Bft) SW 219 0 min 0 W/m 9,6 C 10,7 C 1,6 km/h (1 Bft)
20.09.2017 03:30 10,6 C 10,6 C 93 % 1020,1 hPa 0,0 l/m 0,0 km/h (0 Bft) SW 219 0 min 0 W/m 9,5 C 10,6 C 0,0 km/h (0 Bft)
20.09.2017 03:25 10,6 C 10,6 C 93 % 1020,1 hPa 0,0 l/m 0,0 km/h (0 Bft) SW 219 0 min 0 W/m 9,5 C 10,6 C 0,0 km/h (0 Bft)
20.09.2017 03:20 10,6 C 10,6 C 93 % 1020,1 hPa 0,0 l/m 0,0 km/h (0 Bft) SW 219 0 min 0 W/m 9,5 C 10,6 C 0,0 km/h (0 Bft)
20.09.2017 03:15 10,7 C 10,7 C 93 % 1020,1 hPa 0,0 l/m 0,6 km/h (0 Bft) SW 219 0 min 0 W/m 9,6 C 10,7 C 3,2 km/h (1 Bft)
20.09.2017 03:10 10,7 C 10,7 C 93 % 1020,1 hPa 0,0 l/m 0,6 km/h (0 Bft) SW 219 0 min 0 W/m 9,6 C 10,7 C 3,2 km/h (1 Bft)
20.09.2017 03:05 10,7 C 10,7 C 93 % 1020,1 hPa 0,0 l/m 0,3 km/h (0 Bft) SW 219 0 min 0 W/m 9,6 C 10,7 C 3,2 km/h (1 Bft)
20.09.2017 03:00 10,7 C 10,7 C 93 % 1020,0 hPa 0,0 l/m 0,1 km/h (0 Bft) SW 219 0 min 0 W/m 9,6 C 10,7 C 1,6 km/h (1 Bft)
20.09.2017 02:55 10,7 C 10,7 C 93 % 1020,1 hPa 0,0 l/m 0,0 km/h (0 Bft) SW 219 0 min 0 W/m 9,6 C 10,7 C 0,0 km/h (0 Bft)
20.09.2017 02:50 10,7 C 10,7 C 93 % 1020,1 hPa 0,0 l/m 0,0 km/h (0 Bft) SW 219 0 min 0 W/m 9,6 C 10,7 C 0,0 km/h (0 Bft)
20.09.2017 02:45 10,7 C 10,7 C 93 % 1020,1 hPa 0,0 l/m 0,0 km/h (0 Bft) SW 219 0 min 0 W/m 9,6 C 10,7 C 0,0 km/h (0 Bft)
20.09.2017 02:40 10,8 C 10,8 C 93 % 1020,1 hPa 0,0 l/m 0,0 km/h (0 Bft) SW 219 0 min 0 W/m 9,7 C 10,8 C 0,0 km/h (0 Bft)
20.09.2017 02:35 10,8 C 10,8 C 93 % 1020,1 hPa 0,0 l/m 0,0 km/h (0 Bft) SW 219 0 min 0 W/m 9,7 C 10,8 C 0,0 km/h (0 Bft)
20.09.2017 02:30 10,8 C 10,8 C 93 % 1020,2 hPa 0,0 l/m 0,0 km/h (0 Bft) SW 219 0 min 0 W/m 9,7 C 10,8 C 0,0 km/h (0 Bft)
20.09.2017 02:25 10,8 C 10,8 C 93 % 1020,2 hPa 0,0 l/m 0,0 km/h (0 Bft) SW 219 0 min 0 W/m 9,7 C 10,8 C 0,0 km/h (0 Bft)
20.09.2017 02:20 10,8 C 10,8 C 93 % 1020,2 hPa 0,0 l/m 0,0 km/h (0 Bft) SW 219 0 min 0 W/m 9,7 C 10,8 C 0,0 km/h (0 Bft)
20.09.2017 02:15 10,8 C 10,8 C 93 % 1020,1 hPa 0,0 l/m 0,0 km/h (0 Bft) SW 219 0 min 0 W/m 9,7 C 10,8 C 0,0 km/h (0 Bft)
20.09.2017 02:10 10,8 C 10,8 C 93 % 1020,2 hPa 0,0 l/m 0,0 km/h (0 Bft) SW 219 0 min 0 W/m 9,7 C 10,8 C 0,0 km/h (0 Bft)
20.09.2017 02:05 10,8 C 10,8 C 93 % 1020,2 hPa 0,0 l/m 0,0 km/h (0 Bft) SW 219 0 min 0 W/m 9,7 C 10,8 C 0,0 km/h (0 Bft)
20.09.2017 02:00 10,8 C 10,8 C 93 % 1020,3 hPa 0,0 l/m 0,0 km/h (0 Bft) SW 219 0 min 0 W/m 9,7 C 10,8 C 0,0 km/h (0 Bft)
20.09.2017 01:55 10,8 C 10,8 C 93 % 1020,2 hPa 0,0 l/m 0,0 km/h (0 Bft) SW 219 0 min 0 W/m 9,7 C 10,8 C 0,0 km/h (0 Bft)
20.09.2017 01:50 10,8 C 10,8 C 93 % 1020,2 hPa 0,0 l/m 0,0 km/h (0 Bft) SW 219 0 min 0 W/m 9,7 C 10,8 C 0,0 km/h (0 Bft)
20.09.2017 01:45 10,9 C 10,9 C 93 % 1020,3 hPa 0,0 l/m 0,0 km/h (0 Bft) SW 219 0 min 0 W/m 9,8 C 10,9 C 0,0 km/h (0 Bft)
20.09.2017 01:40 10,9 C 10,9 C 93 % 1020,2 hPa 0,0 l/m 0,0 km/h (0 Bft) SW 219 0 min 0 W/m 9,8 C 10,9 C 0,0 km/h (0 Bft)
20.09.2017 01:35 10,9 C 10,9 C 93 % 1020,2 hPa 0,0 l/m 0,0 km/h (0 Bft) SW 219 0 min 0 W/m 9,8 C 10,9 C 0,0 km/h (0 Bft)
20.09.2017 01:30 10,9 C 10,9 C 93 % 1020,1 hPa 0,0 l/m 0,0 km/h (0 Bft) SW 219 0 min 0 W/m 9,8 C 10,9 C 0,0 km/h (0 Bft)
20.09.2017 01:25 10,9 C 10,9 C 93 % 1020,1 hPa 0,0 l/m 0,0 km/h (0 Bft) SW 219 0 min 0 W/m 9,8 C 10,9 C 0,0 km/h (0 Bft)
20.09.2017 01:20 10,9 C 10,9 C 92 % 1020,1 hPa 0,0 l/m 0,0 km/h (0 Bft) SW 219 0 min 0 W/m 9,7 C 10,9 C 0,0 km/h (0 Bft)
20.09.2017 01:15 11,0 C 11,0 C 93 % 1020,1 hPa 0,0 l/m 0,0 km/h (0 Bft) SW 219 0 min 0 W/m 9,9 C 11,0 C 0,0 km/h (0 Bft)
20.09.2017 01:10 11,0 C 11,0 C 93 % 1020,1 hPa 0,0 l/m 0,0 km/h (0 Bft) SW 219 0 min 0 W/m 9,9 C 11,0 C 0,0 km/h (0 Bft)
20.09.2017 01:05 11,0 C 11,0 C 93 % 1020,0 hPa 0,0 l/m 0,0 km/h (0 Bft) SW 219 0 min 0 W/m 9,9 C 11,0 C 0,0 km/h (0 Bft)
20.09.2017 01:00 11,1 C 11,1 C 93 % 1020,0 hPa 0,0 l/m 0,0 km/h (0 Bft) SW 219 0 min 0 W/m 10,0 C 11,1 C 0,0 km/h (0 Bft)
20.09.2017 00:55 11,1 C 11,1 C 93 % 1020,0 hPa 0,0 l/m 0,0 km/h (0 Bft) SW 219 0 min 0 W/m 10,0 C 11,1 C 0,0 km/h (0 Bft)
20.09.2017 00:50 11,1 C 11,1 C 93 % 1020,0 hPa 0,0 l/m 0,0 km/h (0 Bft) SW 219 0 min 0 W/m 10,0 C 11,1 C 0,0 km/h (0 Bft)
20.09.2017 00:45 11,1 C 11,1 C 93 % 1020,0 hPa 0,0 l/m 0,0 km/h (0 Bft) SW 219 0 min 0 W/m 10,0 C 11,1 C 0,0 km/h (0 Bft)
20.09.2017 00:40 11,2 C 11,2 C 93 % 1020,0 hPa 0,0 l/m 0,0 km/h (0 Bft) SW 219 0 min 0 W/m 10,1 C 11,2 C 0,0 km/h (0 Bft)
20.09.2017 00:35 11,2 C 11,2 C 93 % 1020,0 hPa 0,0 l/m 0,0 km/h (0 Bft) SW 219 0 min 0 W/m 10,1 C 11,2 C 0,0 km/h (0 Bft)
20.09.2017 00:30 11,2 C 11,2 C 93 % 1020,0 hPa 0,0 l/m 0,1 km/h (0 Bft) SW 219 0 min 0 W/m 10,1 C 11,2 C 1,6 km/h (1 Bft)
20.09.2017 00:25 11,2 C 11,2 C 93 % 1020,0 hPa 0,0 l/m 0,2 km/h (0 Bft) SW 219 0 min 0 W/m 10,1 C 11,2 C 3,2 km/h (1 Bft)
20.09.2017 00:20 11,3 C 11,3 C 92 % 1020,0 hPa 0,0 l/m 0,4 km/h (0 Bft) SW 219 0 min 0 W/m 10,0 C 11,3 C 3,2 km/h (1 Bft)
20.09.2017 00:15 11,3 C 11,3 C 92 % 1020,0 hPa 0,0 l/m 0,7 km/h (0 Bft) SW 219 0 min 0 W/m 10,0 C 11,3 C 3,2 km/h (1 Bft)
20.09.2017 00:10 11,4 C 11,3 C 92 % 1020,0 hPa 0,0 l/m 0,1 km/h (0 Bft) SW 219 0 min 0 W/m 10,1 C 11,4 C 1,6 km/h (1 Bft)
20.09.2017 00:05 11,4 C 11,4 C 92 % 1020,0 hPa 0,0 l/m 0,9 km/h (0 Bft) SW 219 0 min 0 W/m 10,1 C 11,4 C 3,2 km/h (1 Bft)
20.09.2017 00:00 11,4 C 11,4 C 92 % 1020,0 hPa 0,0 l/m 0,3 km/h (0 Bft) SW 219 0 min 0 W/m 10,1 C 11,4 C 1,6 km/h (1 Bft)
19.09.2017 23:55 11,4 C 11,4 C 92 % 1020,0 hPa 0,0 l/m 1,2 km/h (1 Bft) SW 219 0 min 0 W/m 10,1 C 11,4 C 3,2 km/h (1 Bft)
19.09.2017 23:50 11,4 C 11,4 C 92 % 1020,0 hPa 0,0 l/m 0,3 km/h (0 Bft) SW 219 0 min 0 W/m 10,1 C 11,4 C 1,6 km/h (1 Bft)
19.09.2017 23:45 11,4 C 11,4 C 92 % 1020,0 hPa 0,0 l/m 1,2 km/h (1 Bft) SW 219 0 min 0 W/m 10,1 C 11,4 C 3,2 km/h (1 Bft)
19.09.2017 23:40 11,5 C 11,5 C 92 % 1020,0 hPa 0,0 l/m 0,7 km/h (0 Bft) SW 219 0 min 0 W/m 10,2 C 11,5 C 3,2 km/h (1 Bft)
19.09.2017 23:35 11,5 C 11,5 C 91 % 1020,0 hPa 0,0 l/m 0,7 km/h (0 Bft) SW 219 0 min 0 W/m 10,1 C 11,5 C 3,2 km/h (1 Bft)
19.09.2017 23:30 11,6 C 11,6 C 91 % 1020,0 hPa 0,0 l/m 0,5 km/h (0 Bft) SW 219 0 min 0 W/m 10,2 C 11,6 C 3,2 km/h (1 Bft)
19.09.2017 23:25 11,6 C 11,6 C 91 % 1020,0 hPa 0,0 l/m 0,3 km/h (0 Bft) SW 219 0 min 0 W/m 10,2 C 11,6 C 1,6 km/h (1 Bft)
19.09.2017 23:20 11,6 C 11,5 C 91 % 1020,0 hPa 0,0 l/m 1,7 km/h (1 Bft) SW 219 0 min 0 W/m 10,2 C 11,6 C 4,8 km/h (1 Bft)
19.09.2017 23:15 11,5 C 11,5 C 91 % 1020,1 hPa 0,0 l/m 0,1 km/h (0 Bft) SW 219 0 min 0 W/m 10,1 C 11,5 C 1,6 km/h (1 Bft)
19.09.2017 23:10 11,5 C 11,5 C 91 % 1020,0 hPa 0,0 l/m 0,0 km/h (0 Bft) SW 219 0 min 0 W/m 10,1 C 11,5 C 0,0 km/h (0 Bft)
19.09.2017 23:05 11,6 C 11,5 C 91 % 1020,0 hPa 0,0 l/m 0,0 km/h (0 Bft) SW 219 0 min 0 W/m 10,2 C 11,6 C 0,0 km/h (0 Bft)
19.09.2017 23:00 11,6 C 11,6 C 91 % 1019,9 hPa 0,0 l/m 0,0 km/h (0 Bft) SW 219 0 min 0 W/m 10,2 C 11,6 C 0,0 km/h (0 Bft)
19.09.2017 22:55 11,6 C 11,6 C 90 % 1019,9 hPa 0,0 l/m 0,0 km/h (0 Bft) SW 219 0 min 0 W/m 10,0 C 11,6 C 0,0 km/h (0 Bft)
19.09.2017 22:50 11,6 C 11,6 C 90 % 1019,8 hPa 0,0 l/m 0,0 km/h (0 Bft) SW 219 0 min 0 W/m 10,0 C 11,6 C 0,0 km/h (0 Bft)
19.09.2017 22:45 11,6 C 11,6 C 90 % 1019,8 hPa 0,0 l/m 0,0 km/h (0 Bft) SW 219 0 min 0 W/m 10,0 C 11,6 C 0,0 km/h (0 Bft)
19.09.2017 22:40 11,6 C 11,6 C 90 % 1019,8 hPa 0,0 l/m 0,0 km/h (0 Bft) SW 219 0 min 0 W/m 10,0 C 11,6 C 0,0 km/h (0 Bft)
19.09.2017 22:35 11,7 C 11,7 C 90 % 1019,7 hPa 0,0 l/m 0,0 km/h (0 Bft) SW 219 0 min 0 W/m 10,1 C 11,7 C 0,0 km/h (0 Bft)
19.09.2017 22:30 11,7 C 11,7 C 90 % 1019,7 hPa 0,0 l/m 0,4 km/h (0 Bft) SW 219 0 min 0 W/m 10,1 C 11,7 C 1,6 km/h (1 Bft)
19.09.2017 22:25 11,7 C 11,7 C 90 % 1019,7 hPa 0,0 l/m 0,1 km/h (0 Bft) SW 219 0 min 0 W/m 10,1 C 11,7 C 1,6 km/h (1 Bft)
19.09.2017 22:20 11,8 C 11,7 C 90 % 1019,7 hPa 0,0 l/m 0,0 km/h (0 Bft) SW 219 0 min 0 W/m 10,2 C 11,8 C 0,0 km/h (0 Bft)
19.09.2017 22:15 11,8 C 11,8 C 90 % 1019,8 hPa 0,0 l/m 0,0 km/h (0 Bft) SW 219 0 min 0 W/m 10,2 C 11,8 C 0,0 km/h (0 Bft)
19.09.2017 22:10 11,8 C 11,8 C 90 % 1019,7 hPa 0,0 l/m 0,0 km/h (0 Bft) SW 219 0 min 0 W/m 10,2 C 11,8 C 0,0 km/h (0 Bft)
19.09.2017 22:05 11,8 C 11,8 C 89 % 1019,7 hPa 0,0 l/m 0,0 km/h (0 Bft) SW 219 0 min 0 W/m 10,0 C 11,8 C 0,0 km/h (0 Bft)
19.09.2017 22:00 11,8 C 11,8 C 89 % 1019,6 hPa 0,0 l/m 0,0 km/h (0 Bft) SW 219 0 min 0 W/m 10,0 C 11,8 C 0,0 km/h (0 Bft)
19.09.2017 21:55 11,9 C 11,9 C 89 % 1019,6 hPa 0,0 l/m 0,0 km/h (0 Bft) SW 219 0 min 0 W/m 10,1 C 11,9 C 0,0 km/h (0 Bft)
19.09.2017 21:50 11,9 C 11,9 C 88 % 1019,6 hPa 0,0 l/m 0,0 km/h (0 Bft) SW 219 0 min 0 W/m 10,0 C 11,9 C 0,0 km/h (0 Bft)
19.09.2017 21:45 11,9 C 11,9 C 88 % 1019,5 hPa 0,0 l/m 0,8 km/h (0 Bft) SW 219 0 min 0 W/m 10,0 C 11,9 C 3,2 km/h (1 Bft)
19.09.2017 21:40 12,1 C 12,0 C 88 % 1019,6 hPa 0,0 l/m 0,1 km/h (0 Bft) SW 219 0 min 0 W/m 10,2 C 12,1 C 1,6 km/h (1 Bft)
19.09.2017 21:35 12,1 C 12,1 C 87 % 1019,5 hPa 0,0 l/m 0,0 km/h (0 Bft) SW 219 0 min 0 W/m 10,0 C 12,1 C 1,6 km/h (1 Bft)
19.09.2017 21:30 12,1 C 12,1 C 87 % 1019,5 hPa 0,0 l/m 0,0 km/h (0 Bft) SW 219 0 min 0 W/m 10,0 C 12,1 C 0,0 km/h (0 Bft)
19.09.2017 21:25 12,1 C 12,1 C 87 % 1019,4 hPa 0,0 l/m 0,0 km/h (0 Bft) SW 219 0 min 0 W/m 10,0 C 12,1 C 0,0 km/h (0 Bft)
19.09.2017 21:20 12,2 C 12,2 C 87 % 1019,4 hPa 0,0 l/m 0,0 km/h (0 Bft) SW 219 0 min 0 W/m 10,1 C 12,2 C 0,0 km/h (0 Bft)
19.09.2017 21:15 12,2 C 12,2 C 86 % 1019,4 hPa 0,0 l/m 0,0 km/h (0 Bft) SW 219 0 min 0 W/m 9,9 C 12,2 C 0,0 km/h (0 Bft)
19.09.2017 21:10 12,2 C 12,2 C 86 % 1019,4 hPa 0,0 l/m 0,0 km/h (0 Bft) SW 219 0 min 0 W/m 9,9 C 12,2 C 0,0 km/h (0 Bft)
19.09.2017 21:05 12,3 C 12,3 C 86 % 1019,3 hPa 0,0 l/m 0,0 km/h (0 Bft) SW 219 0 min 0 W/m 10,0 C 12,3 C 1,6 km/h (1 Bft)
19.09.2017 21:00 12,3 C 12,3 C 86 % 1019,3 hPa 0,0 l/m 0,0 km/h (0 Bft) SW 219 0 min 0 W/m 10,0 C 12,3 C 0,0 km/h (0 Bft)
19.09.2017 20:55 12,4 C 12,4 C 85 % 1019,3 hPa 0,0 l/m 0,0 km/h (0 Bft) SW 219 0 min 0 W/m 9,9 C 12,4 C 0,0 km/h (0 Bft)
19.09.2017 20:50 12,4 C 12,4 C 85 % 1019,2 hPa 0,0 l/m 0,1 km/h (0 Bft) SW 219 0 min 0 W/m 9,9 C 12,4 C 1,6 km/h (1 Bft)
19.09.2017 20:45 12,5 C 12,4 C 84 % 1019,2 hPa 0,0 l/m 0,0 km/h (0 Bft) SW 219 0 min 0 W/m 9,9 C 12,5 C 0,0 km/h (0 Bft)
19.09.2017 20:40 12,5 C 12,5 C 84 % 1019,1 hPa 0,0 l/m 0,4 km/h (0 Bft) SW 219 0 min 0 W/m 9,9 C 12,5 C 1,6 km/h (1 Bft)
19.09.2017 20:35 12,6 C 12,6 C 84 % 1019,0 hPa 0,0 l/m 0,6 km/h (0 Bft) SW 219 0 min 0 W/m 10,0 C 12,6 C 3,2 km/h (1 Bft)
19.09.2017 20:30 12,6 C 12,6 C 85 % 1018,9 hPa 0,0 l/m 2,7 km/h (1 Bft) SW 219 0 min 0 W/m 10,1 C 12,6 C 6,4 km/h (2 Bft)
19.09.2017 20:25 12,7 C 12,7 C 84 % 1018,9 hPa 0,0 l/m 2,3 km/h (1 Bft) S-SW 197 0 min 0 W/m 10,1 C 12,7 C 4,8 km/h (1 Bft)
19.09.2017 20:20 12,7 C 12,7 C 84 % 1018,8 hPa 0,0 l/m 2,3 km/h (1 Bft) S-SW 198 0 min 0 W/m 10,1 C 12,7 C 4,8 km/h (1 Bft)
19.09.2017 20:15 12,8 C 12,8 C 84 % 1018,8 hPa 0,0 l/m 3,0 km/h (1 Bft) S-SW 198 0 min 0 W/m 10,2 C 12,8 C 4,8 km/h (1 Bft)
19.09.2017 20:10 12,9 C 12,9 C 83 % 1018,7 hPa 0,0 l/m 0,8 km/h (0 Bft) S-SW 198 0 min 0 W/m 10,1 C 12,9 C 3,2 km/h (1 Bft)
19.09.2017 20:05 13,0 C 13,0 C 82 % 1018,7 hPa 0,0 l/m 1,3 km/h (1 Bft) S-SW 198 0 min 0 W/m 10,0 C 13,0 C 4,8 km/h (1 Bft)
19.09.2017 20:00 13,1 C 13,1 C 82 % 1018,6 hPa 0,0 l/m 0,2 km/h (0 Bft) S-SW 201 0 min 0 W/m 10,1 C 13,1 C 3,2 km/h (1 Bft)
19.09.2017 19:55 13,2 C 13,2 C 81 % 1018,5 hPa 0,0 l/m 1,0 km/h (0 Bft) S-SW 201 0 min 0 W/m 10,0 C 13,2 C 3,2 km/h (1 Bft)
19.09.2017 19:50 13,2 C 13,2 C 81 % 1018,5 hPa 0,0 l/m 0,7 km/h (0 Bft) W 263 0 min 0 W/m 10,0 C 13,2 C 4,8 km/h (1 Bft)
19.09.2017 19:45 13,3 C 13,3 C 81 % 1018,5 hPa 0,0 l/m 1,0 km/h (0 Bft) W 263 0 min 0 W/m 10,1 C 13,3 C 4,8 km/h (1 Bft)
19.09.2017 19:40 13,4 C 13,4 C 81 % 1018,4 hPa 0,0 l/m 0,0 km/h (0 Bft) W 263 0 min 0 W/m 10,2 C 13,4 C 1,6 km/h (1 Bft)
19.09.2017 19:35 13,5 C 13,5 C 80 % 1018,4 hPa 0,0 l/m 0,0 km/h (0 Bft) W 263 0 min 0 W/m 10,1 C 13,5 C 1,6 km/h (1 Bft)
19.09.2017 19:30 13,6 C 13,6 C 80 % 1018,3 hPa 0,0 l/m 1,4 km/h (1 Bft) W 263 0 min 0 W/m 10,2 C 13,6 C 6,4 km/h (2 Bft)
19.09.2017 19:25 13,6 C 13,6 C 79 % 1018,2 hPa 0,0 l/m 0,8 km/h (0 Bft) W 263 0 min 0 W/m 10,0 C 13,6 C 3,2 km/h (1 Bft)
19.09.2017 19:20 13,6 C 13,6 C 79 % 1018,1 hPa 0,0 l/m 0,8 km/h (0 Bft) W 263 0 min 0 W/m 10,0 C 13,6 C 3,2 km/h (1 Bft)
19.09.2017 19:15 13,7 C 13,7 C 79 % 1018,0 hPa 0,0 l/m 0,8 km/h (0 Bft) W 263 0 min 0 W/m 10,1 C 13,7 C 3,2 km/h (1 Bft)
19.09.2017 19:10 13,7 C 13,7 C 78 % 1018,0 hPa 0,0 l/m 0,2 km/h (0 Bft) W 264 0 min 0 W/m 9,9 C 13,7 C 1,6 km/h (1 Bft)
19.09.2017 19:05 13,8 C 13,8 C 77 % 1018,0 hPa 0,0 l/m 0,8 km/h (0 Bft) W 264 0 min 0 W/m 9,8 C 13,8 C 3,2 km/h (1 Bft)
19.09.2017 19:00 13,8 C 13,8 C 76 % 1017,9 hPa 0,0 l/m 1,6 km/h (1 Bft) W 267 0 min 0 W/m 9,6 C 13,8 C 4,8 km/h (1 Bft)
19.09.2017 18:55 13,9 C 13,9 C 76 % 1017,9 hPa 0,0 l/m 1,1 km/h (1 Bft) W 275 0 min 0 W/m 9,7 C 13,9 C 6,4 km/h (2 Bft)
19.09.2017 18:50 14,0 C 14,0 C 76 % 1017,9 hPa 0,0 l/m 2,6 km/h (1 Bft) W 268 0 min 0 W/m 9,8 C 14,0 C 9,7 km/h (2 Bft)
19.09.2017 18:45 14,1 C 14,1 C 75 % 1017,8 hPa 0,0 l/m 0,8 km/h (0 Bft) W-NW 287 0 min 0 W/m 9,7 C 14,1 C 4,8 km/h (1 Bft)
19.09.2017 18:40 14,2 C 14,2 C 75 % 1017,7 hPa 0,0 l/m 2,8 km/h (1 Bft) W-NW 286 0 min 0 W/m 9,8 C 14,2 C 6,4 km/h (2 Bft)
19.09.2017 18:35 14,2 C 14,2 C 74 % 1017,7 hPa 0,0 l/m 3,3 km/h (1 Bft) W 259 0 min 0 W/m 9,6 C 14,2 C 9,7 km/h (2 Bft)
19.09.2017 18:30 14,3 C 14,3 C 74 % 1017,6 hPa 0,0 l/m 2,6 km/h (1 Bft) NW 309 0 min 0 W/m 9,7 C 14,3 C 9,7 km/h (2 Bft)
19.09.2017 18:25 14,3 C 14,3 C 74 % 1017,6 hPa 0,0 l/m 2,2 km/h (1 Bft) W 276 0 min 0 W/m 9,7 C 14,3 C 4,8 km/h (1 Bft)
19.09.2017 18:20 14,3 C 14,2 C 75 % 1017,6 hPa 0,0 l/m 3,1 km/h (1 Bft) S 169 0 min 0 W/m 9,9 C 14,3 C 11,3 km/h (2 Bft)
19.09.2017 18:15 14,2 C 14,2 C 74 % 1017,5 hPa 0,0 l/m 2,3 km/h (1 Bft) SW 215 0 min 0 W/m 9,6 C 14,2 C 8,0 km/h (2 Bft)
19.09.2017 18:10 14,2 C 14,2 C 73 % 1017,5 hPa 0,0 l/m 4,2 km/h (1 Bft) SW 235 0 min 0 W/m 9,4 C 14,2 C 9,7 km/h (2 Bft)
19.09.2017 18:05 14,2 C 14,2 C 72 % 1017,3 hPa 0,0 l/m 5,7 km/h (1 Bft) W-NW 302 0 min 0 W/m 9,2 C 14,2 C 12,9 km/h (3 Bft)
19.09.2017 18:00 14,3 C 14,3 C 72 % 1017,2 hPa 0,0 l/m 4,6 km/h (1 Bft) W 277 0 min 0 W/m 9,3 C 14,3 C 12,9 km/h (3 Bft)
19.09.2017 17:55 14,3 C 14,3 C 71 % 1017,2 hPa 0,0 l/m 4,7 km/h (1 Bft) W 273 0 min 0 W/m 9,1 C 14,3 C 12,9 km/h (3 Bft)
19.09.2017 17:50 14,4 C 14,4 C 70 % 1017,2 hPa 0,0 l/m 5,9 km/h (2 Bft) W 266 0 min 0 W/m 9,0 C 14,4 C 14,5 km/h (3 Bft)
19.09.2017 17:45 14,4 C 14,4 C 71 % 1017,2 hPa 0,0 l/m 4,1 km/h (1 Bft) W-NW 298 0 min 0 W/m 9,2 C 14,4 C 9,7 km/h (2 Bft)
19.09.2017 17:40 14,4 C 14,4 C 71 % 1017,2 hPa 0,0 l/m 5,1 km/h (1 Bft) W 265 0 min 0 W/m 9,2 C 14,4 C 12,9 km/h (3 Bft)
19.09.2017 17:35 14,6 C 14,6 C 72 % 1017,1 hPa 0,0 l/m 5,9 km/h (2 Bft) NW 317 0 min 0 W/m 9,6 C 14,6 C 12,9 km/h (3 Bft)
19.09.2017 17:30 14,7 C 14,7 C 71 % 1017,2 hPa 0,0 l/m 4,2 km/h (1 Bft) W-NW 291 0 min 0 W/m 9,5 C 14,7 C 9,7 km/h (2 Bft)
19.09.2017 17:25 14,7 C 14,7 C 70 % 1017,2 hPa 0,0 l/m 3,4 km/h (1 Bft) SW 227 0 min 0 W/m 9,3 C 14,7 C 11,3 km/h (2 Bft)
19.09.2017 17:20 14,7 C 14,7 C 71 % 1017,1 hPa 0,0 l/m 5,1 km/h (1 Bft) SW 225 0 min 0 W/m 9,5 C 14,7 C 14,5 km/h (3 Bft)
19.09.2017 17:15 14,7 C 14,6 C 72 % 1017,1 hPa 0,0 l/m 3,2 km/h (1 Bft) W-SW 244 0 min 0 W/m 9,7 C 14,7 C 6,4 km/h (2 Bft)
19.09.2017 17:10 14,6 C 14,6 C 72 % 1017,0 hPa 0,0 l/m 2,7 km/h (1 Bft) W-NW 285 0 min 0 W/m 9,6 C 14,6 C 6,4 km/h (2 Bft)
19.09.2017 17:05 14,6 C 14,5 C 72 % 1017,0 hPa 0,0 l/m 1,7 km/h (1 Bft) W 267 0 min 0 W/m 9,6 C 14,6 C 9,7 km/h (2 Bft)
19.09.2017 17:00 14,5 C 14,5 C 71 % 1017,0 hPa 0,0 l/m 4,6 km/h (1 Bft) W-NW 284 0 min 0 W/m 9,3 C 14,5 C 12,9 km/h (3 Bft)
19.09.2017 16:55 14,5 C 14,5 C 70 % 1017,0 hPa 0,0 l/m 4,2 km/h (1 Bft) W-NW 291 0 min 0 W/m 9,1 C 14,5 C 12,9 km/h (3 Bft)
19.09.2017 16:50 14,6 C 14,6 C 71 % 1017,0 hPa 0,0 l/m 6,3 km/h (2 Bft) W-NW 289 0 min 0 W/m 9,4 C 14,6 C 12,9 km/h (3 Bft)
19.09.2017 16:45 14,6 C 14,6 C 71 % 1017,1 hPa 0,0 l/m 4,9 km/h (1 Bft) W-NW 296 0 min 0 W/m 9,4 C 14,6 C 12,9 km/h (3 Bft)
19.09.2017 16:40 14,6 C 14,6 C 72 % 1017,2 hPa 0,0 l/m 6,9 km/h (2 Bft) W-SW 257 0 min 0 W/m 9,6 C 14,6 C 14,5 km/h (3 Bft)
19.09.2017 16:35 14,6 C 14,4 C 74 % 1017,2 hPa 0,0 l/m 6,3 km/h (2 Bft) NW 324 0 min 0 W/m 10,0 C 14,6 C 12,9 km/h (3 Bft)
19.09.2017 16:30 14,4 C 14,4 C 76 % 1017,2 hPa 0,0 l/m 5,3 km/h (1 Bft) W 279 0 min 0 W/m 10,2 C 14,4 C 12,9 km/h (3 Bft)
19.09.2017 16:25 14,4 C 14,4 C 76 % 1017,2 hPa 0,0 l/m 3,1 km/h (1 Bft) W-NW 284 0 min 0 W/m 10,2 C 14,4 C 6,4 km/h (2 Bft)
19.09.2017 16:20 14,4 C 14,4 C 76 % 1017,2 hPa 0,0 l/m 4,3 km/h (1 Bft) W-NW 285 0 min 0 W/m 10,2 C 14,4 C 11,3 km/h (2 Bft)
19.09.2017 16:15 14,4 C 14,4 C 76 % 1017,2 hPa 0,0 l/m 2,6 km/h (1 Bft) W 277 0 min 0 W/m 10,2 C 14,4 C 6,4 km/h (2 Bft)
19.09.2017 16:10 14,4 C 14,4 C 76 % 1017,2 hPa 0,0 l/m 3,3 km/h (1 Bft) W-NW 287 0 min 0 W/m 10,2 C 14,4 C 11,3 km/h (2 Bft)
19.09.2017 16:05 14,6 C 14,6 C 75 % 1017,2 hPa 0,0 l/m 3,1 km/h (1 Bft) W-SW 252 0 min 0 W/m 10,2 C 14,6 C 9,7 km/h (2 Bft)
19.09.2017 16:00 14,7 C 14,6 C 75 % 1017,2 hPa 0,0 l/m 4,7 km/h (1 Bft) SW 236 0 min 0 W/m 10,3 C 14,7 C 11,3 km/h (2 Bft)
19.09.2017 15:55 14,6 C 14,6 C 76 % 1017,2 hPa 0,0 l/m 2,6 km/h (1 Bft) W-NW 283 0 min 0 W/m 10,4 C 14,6 C 6,4 km/h (2 Bft)
19.09.2017 15:50 14,7 C 14,7 C 75 % 1017,2 hPa 0,0 l/m 4,4 km/h (1 Bft) SW 235 0 min 0 W/m 10,3 C 14,7 C 11,3 km/h (2 Bft)
19.09.2017 15:45 14,7 C 14,7 C 74 % 1017,1 hPa 0,0 l/m 5,2 km/h (1 Bft) W-NW 290 0 min 0 W/m 10,1 C 14,7 C 11,3 km/h (2 Bft)
19.09.2017 15:40 14,8 C 14,8 C 75 % 1017,1 hPa 0,0 l/m 5,0 km/h (1 Bft) W-NW 294 0 min 0 W/m 10,4 C 14,8 C 9,7 km/h (2 Bft)
19.09.2017 15:35 14,8 C 14,8 C 73 % 1017,1 hPa 0,0 l/m 7,3 km/h (2 Bft) W-SW 249 0 min 0 W/m 10,0 C 14,8 C 16,1 km/h (3 Bft)
19.09.2017 15:30 14,9 C 14,9 C 73 % 1017,1 hPa 0,0 l/m 5,6 km/h (1 Bft) N-NW 334 0 min 0 W/m 10,1 C 14,9 C 11,3 km/h (2 Bft)
19.09.2017 15:25 14,9 C 14,7 C 74 % 1017,1 hPa 0,0 l/m 5,4 km/h (1 Bft) W 270 0 min 0 W/m 10,3 C 14,9 C 16,1 km/h (3 Bft)
19.09.2017 15:20 14,7 C 14,4 C 75 % 1017,1 hPa 0,0 l/m 3,2 km/h (1 Bft) W-NW 282 0 min 0 W/m 10,3 C 14,7 C 9,7 km/h (2 Bft)
19.09.2017 15:15 14,4 C 14,4 C 75 % 1017,0 hPa 0,0 l/m 4,2 km/h (1 Bft) NW 318 0 min 0 W/m 10,0 C 14,4 C 11,3 km/h (2 Bft)
19.09.2017 15:10 14,4 C 14,3 C 76 % 1017,1 hPa 0,0 l/m 3,4 km/h (1 Bft) W 277 0 min 0 W/m 10,2 C 14,4 C 11,3 km/h (2 Bft)
19.09.2017 15:05 14,3 C 14,2 C 76 % 1017,1 hPa 0,0 l/m 4,7 km/h (1 Bft) W-NW 297 0 min 0 W/m 10,1 C 14,3 C 12,9 km/h (3 Bft)
19.09.2017 15:00 14,4 C 14,4 C 78 % 1017,0 hPa 0,0 l/m 6,3 km/h (2 Bft) W-NW 302 0 min 0 W/m 10,6 C 14,4 C 14,5 km/h (3 Bft)
19.09.2017 14:55 14,4 C 14,4 C 78 % 1017,0 hPa 0,0 l/m 4,4 km/h (1 Bft) N-NW 332 0 min 0 W/m 10,6 C 14,4 C 11,3 km/h (2 Bft)
19.09.2017 14:50 14,4 C 14,4 C 78 % 1017,1 hPa 0,0 l/m 2,9 km/h (1 Bft) W-NW 293 0 min 0 W/m 10,6 C 14,4 C 11,3 km/h (2 Bft)
19.09.2017 14:45 14,4 C 14,4 C 77 % 1017,1 hPa 0,0 l/m 4,9 km/h (1 Bft) W 261 0 min 0 W/m 10,4 C 14,4 C 11,3 km/h (2 Bft)
19.09.2017 14:40 14,4 C 14,4 C 77 % 1017,1 hPa 0,0 l/m 5,2 km/h (1 Bft) W-NW 286 0 min 0 W/m 10,4 C 14,4 C 11,3 km/h (2 Bft)
19.09.2017 14:35 14,4 C 14,3 C 77 % 1017,1 hPa 0,0 l/m 5,6 km/h (1 Bft) NW 325 0 min 0 W/m 10,4 C 14,4 C 14,5 km/h (3 Bft)
19.09.2017 14:30 14,3 C 14,3 C 78 % 1017,1 hPa 0,0 l/m 1,8 km/h (1 Bft) NW 316 0 min 0 W/m 10,5 C 14,3 C 6,4 km/h (2 Bft)
19.09.2017 14:25 14,4 C 14,2 C 77 % 1017,2 hPa 0,0 l/m 6,7 km/h (2 Bft) W-NW 302 0 min 0 W/m 10,4 C 14,4 C 12,9 km/h (3 Bft)
19.09.2017 14:20 14,2 C 14,1 C 79 % 1017,2 hPa 0,0 l/m 3,9 km/h (1 Bft) W-NW 293 0 min 0 W/m 10,6 C 14,2 C 11,3 km/h (2 Bft)
19.09.2017 14:15 14,1 C 14,1 C 79 % 1017,2 hPa 0,0 l/m 5,0 km/h (1 Bft) N-NW 341 0 min 0 W/m 10,5 C 14,1 C 14,5 km/h (3 Bft)
19.09.2017 14:10 14,1 C 14,1 C 80 % 1017,2 hPa 0,0 l/m 4,7 km/h (1 Bft) N 349 0 min 0 W/m 10,7 C 14,1 C 12,9 km/h (3 Bft)
19.09.2017 14:05 14,4 C 14,4 C 77 % 1017,1 hPa 0,0 l/m 4,7 km/h (1 Bft) W-NW 294 0 min 0 W/m 10,4 C 14,4 C 9,7 km/h (2 Bft)
19.09.2017 14:00 14,8 C 14,7 C 78 % 1017,1 hPa 0,0 l/m 5,7 km/h (1 Bft) N 5 0 min 0 W/m 11,0 C 14,8 C 14,5 km/h (3 Bft)
19.09.2017 13:55 14,7 C 14,5 C 78 % 1017,2 hPa 0,0 l/m 4,6 km/h (1 Bft) N-NO 19 0 min 0 W/m 10,9 C 14,7 C 11,3 km/h (2 Bft)
19.09.2017 13:50 14,5 C 14,1 C 80 % 1017,2 hPa 0,0 l/m 5,7 km/h (1 Bft) W-NW 288 0 min 0 W/m 11,1 C 14,5 C 12,9 km/h (3 Bft)
19.09.2017 13:45 14,1 C 14,1 C 80 % 1017,2 hPa 0,0 l/m 8,1 km/h (2 Bft) NW 324 0 min 0 W/m 10,7 C 14,1 C 17,7 km/h (3 Bft)
19.09.2017 13:40 14,1 C 13,9 C 80 % 1017,2 hPa 0,0 l/m 5,9 km/h (2 Bft) W-SW 245 0 min 0 W/m 10,7 C 14,1 C 16,1 km/h (3 Bft)
19.09.2017 13:35 13,9 C 13,9 C 78 % 1017,2 hPa 0,0 l/m 7,0 km/h (2 Bft) W 274 0 min 0 W/m 10,1 C 13,9 C 16,1 km/h (3 Bft)
19.09.2017 13:30 13,9 C 13,8 C 80 % 1017,2 hPa 0,0 l/m 7,1 km/h (2 Bft) W-NW 285 0 min 0 W/m 10,5 C 13,9 C 16,1 km/h (3 Bft)
19.09.2017 13:25 13,9 C 13,6 C 82 % 1017,2 hPa 0,0 l/m 7,6 km/h (2 Bft) NW 309 0 min 0 W/m 10,9 C 13,9 C 14,5 km/h (3 Bft)
19.09.2017 13:20 13,6 C 13,2 C 85 % 1017,1 hPa 0,0 l/m 3,4 km/h (1 Bft) NW 310 0 min 0 W/m 11,1 C 13,6 C 12,9 km/h (3 Bft)
19.09.2017 13:15 13,2 C 13,2 C 85 % 1017,2 hPa 0,0 l/m 4,4 km/h (1 Bft) NW 306 0 min 0 W/m 10,7 C 13,2 C 12,9 km/h (3 Bft)
19.09.2017 13:10 13,2 C 13,2 C 87 % 1017,2 hPa 0,0 l/m 4,1 km/h (1 Bft) W 274 0 min 0 W/m 11,1 C 13,2 C 11,3 km/h (2 Bft)
19.09.2017 13:05 13,2 C 13,2 C 86 % 1017,2 hPa 0,0 l/m 5,6 km/h (1 Bft) NW 305 0 min 0 W/m 10,9 C 13,2 C 14,5 km/h (3 Bft)
19.09.2017 13:00 13,2 C 13,1 C 87 % 1017,3 hPa 0,0 l/m 6,0 km/h (2 Bft) W-NW 288 0 min 0 W/m 11,1 C 13,2 C 14,5 km/h (3 Bft)
19.09.2017 12:55 13,1 C 13,0 C 88 % 1017,3 hPa 0,2 l/m 6,5 km/h (2 Bft) W-NW 293 0 min 0 W/m 11,2 C 13,1 C 12,9 km/h (3 Bft)
19.09.2017 12:50 13,0 C 12,9 C 89 % 1017,3 hPa 0,0 l/m 2,3 km/h (1 Bft) W-NW 287 0 min 0 W/m 11,2 C 13,0 C 11,3 km/h (2 Bft)
19.09.2017 12:45 13,0 C 13,0 C 88 % 1017,4 hPa 0,0 l/m 4,8 km/h (1 Bft) NW 314 0 min 0 W/m 11,1 C 13,0 C 12,9 km/h (3 Bft)
19.09.2017 12:40 13,3 C 13,3 C 87 % 1017,4 hPa 0,0 l/m 4,9 km/h (1 Bft) W 278 0 min 0 W/m 11,2 C 13,3 C 14,5 km/h (3 Bft)
19.09.2017 12:35 13,6 C 13,4 C 86 % 1017,4 hPa 0,0 l/m 1,6 km/h (1 Bft) W 269 0 min 0 W/m 11,3 C 13,6 C 4,8 km/h (1 Bft)
19.09.2017 12:30 13,5 C 13,4 C 84 % 1017,3 hPa 0,0 l/m 3,2 km/h (1 Bft) SW 229 0 min 0 W/m 10,8 C 13,5 C 11,3 km/h (2 Bft)
19.09.2017 12:25 13,4 C 13,3 C 81 % 1017,2 hPa 0,0 l/m 4,7 km/h (1 Bft) W-NW 292 0 min 0 W/m 10,2 C 13,4 C 12,9 km/h (3 Bft)
19.09.2017 12:20 13,3 C 13,1 C 81 % 1017,3 hPa 0,0 l/m 3,1 km/h (1 Bft) W-NW 301 0 min 0 W/m 10,1 C 13,3 C 8,0 km/h (2 Bft)
19.09.2017 12:15 13,1 C 12,7 C 84 % 1017,3 hPa 0,0 l/m 1,8 km/h (1 Bft) SW 222 0 min 0 W/m 10,5 C 13,1 C 6,4 km/h (2 Bft)
19.09.2017 12:10 12,7 C 12,4 C 86 % 1017,3 hPa 0,0 l/m 0,7 km/h (0 Bft) S-SW 213 0 min 0 W/m 10,4 C 12,7 C 3,2 km/h (1 Bft)
19.09.2017 12:05 12,4 C 12,3 C 84 % 1017,4 hPa 0,0 l/m 0,3 km/h (0 Bft) S-SW 205 0 min 0 W/m 9,8 C 12,4 C 1,6 km/h (1 Bft)
19.09.2017 12:00 12,3 C 12,3 C 85 % 1017,5 hPa 0,0 l/m 1,7 km/h (1 Bft) S-SW 201 0 min 0 W/m 9,9 C 12,3 C 4,8 km/h (1 Bft)
19.09.2017 11:55 12,3 C 12,2 C 86 % 1017,5 hPa 0,0 l/m 0,2 km/h (0 Bft) W 265 0 min 0 W/m 10,0 C 12,3 C 1,6 km/h (1 Bft)
19.09.2017 11:50 12,2 C 12,2 C 85 % 1017,6 hPa 0,0 l/m 0,6 km/h (0 Bft) W 268 0 min 0 W/m 9,8 C 12,2 C 3,2 km/h (1 Bft)
19.09.2017 11:45 12,2 C 12,1 C 85 % 1017,6 hPa 0,0 l/m 1,3 km/h (1 Bft) W 268 0 min 0 W/m 9,8 C 12,2 C 4,8 km/h (1 Bft)
19.09.2017 11:40 12,2 C 12,1 C 86 % 1017,6 hPa 0,0 l/m 1,1 km/h (1 Bft) W 261 0 min 0 W/m 9,9 C 12,2 C 6,4 km/h (2 Bft)
19.09.2017 11:35 12,1 C 12,1 C 87 % 1017,6 hPa 0,0 l/m 2,7 km/h (1 Bft) SW 227 0 min 0 W/m 10,0 C 12,1 C 6,4 km/h (2 Bft)
19.09.2017 11:30 12,1 C 12,1 C 88 % 1017,6 hPa 0,0 l/m 2,3 km/h (1 Bft) S 190 0 min 0 W/m 10,2 C 12,1 C 6,4 km/h (2 Bft)
19.09.2017 11:25 12,1 C 11,9 C 88 % 1017,6 hPa 0,0 l/m 1,7 km/h (1 Bft) S-SW 206 0 min 0 W/m 10,2 C 12,1 C 4,8 km/h (1 Bft)
19.09.2017 11:20 11,9 C 11,9 C 87 % 1017,6 hPa 0,0 l/m 2,2 km/h (1 Bft) S 179 0 min 0 W/m 9,8 C 11,9 C 6,4 km/h (2 Bft)
19.09.2017 11:15 12,0 C 12,0 C 87 % 1017,6 hPa 0,0 l/m 4,1 km/h (1 Bft) SW 215 0 min 0 W/m 9,9 C 12,0 C 6,4 km/h (2 Bft)
19.09.2017 11:10 12,0 C 12,0 C 87 % 1017,6 hPa 0,0 l/m 4,1 km/h (1 Bft) S-SW 201 0 min 0 W/m 9,9 C 12,0 C 8,0 km/h (2 Bft)
19.09.2017 11:05 12,0 C 12,0 C 87 % 1017,6 hPa 0,0 l/m 3,9 km/h (1 Bft) SW 220 0 min 0 W/m 9,9 C 12,0 C 9,7 km/h (2 Bft)
19.09.2017 11:00 12,0 C 11,9 C 88 % 1017,5 hPa 0,0 l/m 4,2 km/h (1 Bft) S 184 0 min 0 W/m 10,1 C 12,0 C 6,4 km/h (2 Bft)
19.09.2017 10:55 11,9 C 11,9 C 87 % 1017,5 hPa 0,0 l/m 3,0 km/h (1 Bft) S-SW 201 0 min 0 W/m 9,8 C 11,9 C 8,0 km/h (2 Bft)
19.09.2017 10:50 11,9 C 11,9 C 88 % 1017,4 hPa 0,0 l/m 1,2 km/h (1 Bft) SW 234 0 min 0 W/m 10,0 C 11,9 C 4,8 km/h (1 Bft)
19.09.2017 10:45 11,9 C 11,8 C 88 % 1017,4 hPa 0,0 l/m 3,7 km/h (1 Bft) W-SW 243 0 min 0 W/m 10,0 C 11,9 C 8,0 km/h (2 Bft)
19.09.2017 10:40 11,8 C 11,7 C 89 % 1017,4 hPa 0,0 l/m 1,0 km/h (0 Bft) SW 223 0 min 0 W/m 10,0 C 11,8 C 4,8 km/h (1 Bft)
19.09.2017 10:35 11,7 C 11,7 C 89 % 1017,3 hPa 0,0 l/m 1,6 km/h (1 Bft) SW 223 0 min 0 W/m 9,9 C 11,7 C 4,8 km/h (1 Bft)
19.09.2017 10:30 11,7 C 11,7 C 90 % 1017,2 hPa 0,0 l/m 4,2 km/h (1 Bft) S 186 0 min 0 W/m 10,1 C 11,7 C 9,7 km/h (2 Bft)
19.09.2017 10:25 11,7 C 11,6 C 91 % 1017,3 hPa 0,0 l/m 1,5 km/h (1 Bft) S-SW 199 0 min 0 W/m 10,3 C 11,7 C 4,8 km/h (1 Bft)
19.09.2017 10:20 11,6 C 11,4 C 91 % 1017,3 hPa 0,0 l/m 0,8 km/h (0 Bft) S-SW 195 0 min 0 W/m 10,2 C 11,6 C 3,2 km/h (1 Bft)
19.09.2017 10:15 11,4 C 11,4 C 92 % 1017,3 hPa 0,0 l/m 1,1 km/h (1 Bft) S-SW 195 0 min 0 W/m 10,1 C 11,4 C 3,2 km/h (1 Bft)
19.09.2017 10:10 11,4 C 11,3 C 92 % 1017,3 hPa 0,0 l/m 1,0 km/h (0 Bft) S-SW 195 0 min 0 W/m 10,1 C 11,4 C 4,8 km/h (1 Bft)
19.09.2017 10:05 11,3 C 11,2 C 92 % 1017,3 hPa 0,0 l/m 0,0 km/h (0 Bft) N 11 0 min 0 W/m 10,0 C 11,3 C 0,0 km/h (0 Bft)
19.09.2017 10:00 11,2 C 11,2 C 92 % 1017,3 hPa 0,0 l/m 0,0 km/h (0 Bft) N 11 0 min 0 W/m 9,9 C 11,2 C 0,0 km/h (0 Bft)
19.09.2017 09:55 11,2 C 11,1 C 92 % 1017,3 hPa 0,0 l/m 0,0 km/h (0 Bft) N 11 0 min 0 W/m 9,9 C 11,2 C 0,0 km/h (0 Bft)
19.09.2017 09:50 11,1 C 11,0 C 93 % 1017,3 hPa 0,0 l/m 0,0 km/h (0 Bft) N 11 0 min 0 W/m 10,0 C 11,1 C 0,0 km/h (0 Bft)
19.09.2017 09:45 11,1 C 10,9 C 92 % 1017,3 hPa 0,0 l/m 0,0 km/h (0 Bft) N 11 0 min 0 W/m 9,8 C 11,1 C 0,0 km/h (0 Bft)
19.09.2017 09:40 10,9 C 10,9 C 93 % 1017,3 hPa 0,0 l/m 0,0 km/h (0 Bft) N 11 0 min 0 W/m 9,8 C 10,9 C 0,0 km/h (0 Bft)
19.09.2017 09:35 10,9 C 10,9 C 93 % 1017,3 hPa 0,0 l/m 0,0 km/h (0 Bft) N 11 0 min 0 W/m 9,8 C 10,9 C 0,0 km/h (0 Bft)
19.09.2017 09:30 10,9 C 10,8 C 94 % 1017,2 hPa 0,0 l/m 0,0 km/h (0 Bft) N 11 0 min 0 W/m 10,0 C 10,9 C 0,0 km/h (0 Bft)
19.09.2017 09:25 10,8 C 10,7 C 94 % 1017,2 hPa 0,0 l/m 0,0 km/h (0 Bft) N 11 0 min 0 W/m 9,9 C 10,8 C 0,0 km/h (0 Bft)
19.09.2017 09:20 10,7 C 10,6 C 94 % 1017,2 hPa 0,0 l/m 0,0 km/h (0 Bft) N 11 0 min 0 W/m 9,8 C 10,7 C 0,0 km/h (0 Bft)
19.09.2017 09:15 10,6 C 10,5 C 95 % 1017,2 hPa 0,0 l/m 0,0 km/h (0 Bft) N 11 0 min 0 W/m 9,8 C 10,6 C 0,0 km/h (0 Bft)
19.09.2017 09:10 10,5 C 10,3 C 95 % 1017,2 hPa 0,0 l/m 0,0 km/h (0 Bft) N 11 0 min 0 W/m 9,7 C 10,5 C 0,0 km/h (0 Bft)
19.09.2017 09:05 10,3 C 10,3 C 95 % 1017,1 hPa 0,0 l/m 0,0 km/h (0 Bft) N 11 0 min 0 W/m 9,5 C 10,3 C 0,0 km/h (0 Bft)
19.09.2017 09:00 10,3 C 10,2 C 95 % 1017,1 hPa 0,0 l/m 0,0 km/h (0 Bft) N 9 0 min 0 W/m 9,5 C 10,3 C 0,0 km/h (0 Bft)
19.09.2017 08:55 10,2 C 10,1 C 95 % 1017,1 hPa 0,0 l/m 0,0 km/h (0 Bft) N 9 0 min 0 W/m 9,4 C 10,2 C 0,0 km/h (0 Bft)
19.09.2017 08:50 10,1 C 10,1 C 95 % 1017,1 hPa 0,0 l/m 0,4 km/h (0 Bft) N 9 0 min 0 W/m 9,3 C 10,1 C 1,6 km/h (1 Bft)
19.09.2017 08:45 10,1 C 9,9 C 95 % 1017,1 hPa 0,0 l/m 0,4 km/h (0 Bft) N 9 0 min 0 W/m 9,3 C 10,1 C 3,2 km/h (1 Bft)
19.09.2017 08:40 9,9 C 9,8 C 95 % 1017,1 hPa 0,0 l/m 0,0 km/h (0 Bft) N 9 0 min 0 W/m 9,1 C 9,9 C 0,0 km/h (0 Bft)
19.09.2017 08:35 9,8 C 9,7 C 95 % 1017,1 hPa 0,0 l/m 0,0 km/h (0 Bft) N 9 0 min 0 W/m 9,0 C 9,8 C 0,0 km/h (0 Bft)
19.09.2017 08:30 9,7 C 9,7 C 95 % 1017,1 hPa 0,0 l/m 0,1 km/h (0 Bft) N 9 0 min 0 W/m 8,9 C 9,7 C 1,6 km/h (1 Bft)
19.09.2017 08:25 9,7 C 9,6 C 95 % 1017,0 hPa 0,0 l/m 0,8 km/h (0 Bft) N 9 0 min 0 W/m 8,9 C 9,7 C 3,2 km/h (1 Bft)
19.09.2017 08:20 9,6 C 9,6 C 95 % 1017,0 hPa 0,0 l/m 0,6 km/h (0 Bft) N 9 0 min 0 W/m 8,8 C 9,6 C 3,2 km/h (1 Bft)
19.09.2017 08:15 9,6 C 9,6 C 95 % 1017,0 hPa 0,0 l/m 1,7 km/h (1 Bft) N 9 0 min 0 W/m 8,8 C 9,6 C 3,2 km/h (1 Bft)
19.09.2017 08:10 9,6 C 9,6 C 95 % 1017,0 hPa 0,0 l/m 2,1 km/h (1 Bft) N 11 0 min 0 W/m 8,8 C 9,6 C 4,8 km/h (1 Bft)
19.09.2017 08:05 9,6 C 9,4 C 95 % 1017,0 hPa 0,0 l/m 1,6 km/h (1 Bft) N 11 0 min 0 W/m 8,8 C 9,6 C 4,8 km/h (1 Bft)
19.09.2017 08:00 9,4 C 9,4 C 95 % 1017,0 hPa 0,0 l/m 0,6 km/h (0 Bft) W-NW 302 0 min 0 W/m 8,6 C 9,4 C 1,6 km/h (1 Bft)
_ Min-Zeit 08:00 08:00 16:55 08:00 - 08:35 - - - - 08:00 08:00 08:35
Minimum _ 9,5 C 9,4 C 70 % 1017,0 hPa - 0,0 km/h (0 Bft) - - - - 8,6 C 9,4 C 0,0 km/h (0 Bft)
_ Max-Zeit 15:25 15:30 08:00 07:15 12:55 13:45 - - 08:00 08:00 12:35 15:25 13:45
Maximum _ 14,9 C 14,9 C 95 % 1021,0 hPa 0,2 l/m 8,1 km/h
NW (2 Bft)
- - 0 min 0 W/m 11,3 C 14,9 C 17,7 km/h
W-NW (3 Bft)
Durchschnitt _ 12,2 C 12,2 C 86 % 1018,7 hPa #0,2 l/m 1,7 km/h (1 Bft) W-NW - #0 min. 0 W/m 10,0 C 12,2 C 5,1 km/h (1 Bft)